Temp
13 14 13 12 11 11 10 9 9 9 9 9 9 10 11 11 10 9 9 8 8 7 7 6 6 7 7 7 7 7 7 9 9 11 12 16 18 18 18 17 17 18 17
13 13 11 11 10 10 9 9 8 8 7 7 8 8 9 9 8 8 8 7 7 6 6 5 5 5 5 6 6 6 6 7 7 9 9 11 14 15 16 16 16 17 18
13 12 10 10 10 9 9 9 8 7 6 6 7 8 9 8 7 6 6 5 4 4 4 4 4 4 4 4 4 5 5 6 7 7 8 10 10 10 14 15 15 15 15
12 11 10 10 9 9 9 9 8 6 6 5 5 5 5 5 4 4 4 4 3 3 3 2 3 3 3 3 3 4 4 5 6 7 8 8 8 10 10 13 13 14 13
10 9 9 10 9 9 8 8 7 6 5 4 4 4 4 4 3 3 2 2 2 1 1 1 1 1 2 2 2 2 3 4 4 5 6 7 8 9 9 11 10 11 12
10 9 10 9 9 8 8 8 6 5 4 3 3 3 3 3 2 2 1 1 1 1 1 0 1 1 1 1 1 2 2 3 3 3 4 5 6 7 8 9 9 9 10
9 9 8 9 7 7 7 7 5 4 3 3 2 2 2 2 1 1 1 0 0 -0 -0 0 0 0 1 1 1 1 1 1 1 2 2 2 4 4 5 6 7 8 8
9 9 9 9 6 6 5 5 4 3 3 3 2 2 1 1 1 1 0 -0 -0 -0 -0 -0 -0 -0 -0 0 0 0 0 -0 0 0 0 0 1 1 2 3 4 5 7
9 8 8 8 5 5 4 4 3 3 2 2 2 1 1 1 0 0 -0 -1 -1 -0 -0 -1 -1 -1 -1 -1 -0 -1 -1 -1 -1 -1 -1 -1 -1 -1 -0 0 1 3 5
8 8 8 7 5 4 3 3 3 2 2 2 2 1 1 1 0 -0 -0 -0 -0 -0 -0 -1 -2 -2 -1 -1 -1 -1 -1 -1 -1 -2 -2 -2 -2 -2 -1 -1 -0 1 2
8 8 8 6 5 4 3 3 2 2 2 1 2 2 1 1 1 0 0 0 0 0 -0 -2 -2 -2 -2 -2 -1 -1 -2 -2 -2 -3 -3 -3 -3 -2 -2 -2 -2 -1 -1
9 8 8 6 5 4 3 3 2 2 2 2 2 2 2 1 1 0 0 -0 -0 -1 -2 -3 -3 -3 -3 -2 -2 -2 -2 -3 -3 -4 -5 -5 -4 -3 -2 -2 -3 -2 -2
9 8 7 6 5 4 3 3 3 3 3 3 2 2 1 1 0 -0 -1 -1 -1 -2 -3 -4 -5 -4 -4 -3 -3 -3 -4 -4 -5 -4 -6 -6 -5 -4 -3 -3 -4 -3 -3
10 10 8 6 5 4 3 3 3 3 3 2 1 1 0 -0 -1 -1 -2 -2 -3 -3 -5 -5 -6 -6 -5 -4 -3 -4 -5 -5 -6 -7 -7 -7 -6 -5 -5 -4 -4 -4 -4
11 10 7 5 4 4 3 3 3 3 2 2 1 -0 -1 -1 -2 -2 -3 -3 -4 -5 -6 -6 -7 -7 -6 -5 -4 -5 -6 -7 -8 -8 -8 -8 -7 -7 -6 -6 -6 -5 -5
11 11 8 5 5 4 3 3 3 3 2 1 -1 -1 -2 -2 -3 -4 -4 -5 -5 -6 -6 -7 -8 -7 -7 -6 -5 -6 -7 -8 -9 -9 -9 -8 -8 -8 -8 -7 -7 -7 -6
11 10 6 5 4 4 4 4 3 2 1 -0 -2 -2 -3 -4 -4 -4 -5 -6 -6 -6 -7 -7 -8 -7 -7 -7 -6 -6 -7 -8 -9 -9 -9 -8 -8 -8 -9 -9 -8 -8 -7
11 9 6 4 4 4 4 3 2 1 -0 -2 -3 -3 -4 -5 -5 -5 -5 -6 -6 -7 -7 -8 -8 -8 -7 -8 -7 -8 -8 -9 -9 -9 -8 -8 -8 -8 -10 -10 -9 -9 -9
7 5 4 3 3 3 3 2 1 -1 -2 -3 -4 -4 -5 -5 -5 -5 -5 -6 -6 -7 -8 -8 -8 -8 -8 -8 -9 -8 -9 -9 -9 -9 -8 -8 -8 -8 -9 -11 -11 -11 -10
3 1 1 1 1 2 2 1 -1 -2 -3 -4 -5 -5 -5 -5 -5 -5 -5 -5 -6 -7 -8 -9 -9 -9 -8 -8 -8 -9 -9 -9 -9 -9 -9 -8 -8 -8 -9 -11 -11 -12 -11
1 0 0 -0 -0 1 0 -2 -2 -3 -3 -4 -5 -5 -5 -5 -5 -5 -5 -5 -5 -7 -8 -9 -10 -10 -9 -9 -8 -9 -9 -9 -9 -9 -9 -9 -9 -9 -9 -10 -11 -11 -12
-0 -1 -1 -1 -1 -1 -1 -2 -3 -3 -3 -4 -5 -5 -5 -5 -5 -5 -5 -5 -5 -7 -9 -9 -10 -10 -10 -10 -9 -9 -9 -9 -9 -9 -9 -9 -9 -10 -10 -11 -11 -12 -12
-1 -1 -1 -2 -2 -3 -2 -3 -3 -4 -4 -5 -5 -5 -5 -5 -5 -5 -5 -6 -6 -7 -9 -10 -10 -10 -10 -10 -10 -9 -9 -9 -9 -9 -10 -10 -10 -11 -11 -11 -12 -13 -13
-1 -1 -2 -2 -2 -2 -2 -3 -4 -4 -5 -5 -5 -4 -5 -6 -6 -6 -7 -7 -8 -9 -9 -10 -11 -10 -10 -10 -9 -9 -9 -9 -9 -10 -11 -11 -11 -12 -12 -13 -13 -13 -13
-1 -1 -1 -1 -1 -1 -2 -3 -4 -4 -4 -5 -5 -5 -5 -6 -7 -7 -7 -8 -9 -9 -10 -10 -10 -10 -10 -9 -9 -9 -9 -9 -10 -11 -12 -12 -13 -13 -14 -14 -14 -14 -14
-1 -1 -0 -0 -0 -1 -2 -2 -3 -3 -3 -4 -4 -4 -5 -6 -7 -9 -10 -9 -9 -10 -10 -10 -10 -10 -10 -10 -9 -9 -10 -11 -11 -12 -13 -13 -14 -14 -15 -15 -15 -15 -15
Height
807 811 815 819 823 824 824 823 820 818 816 813 812 811 810 810 808 807 806 804 803 801 800 798 798 793 788 793 788 788 786 782 778 772 767 761 759 761 764 765 763 763 766
804 809 814 819 823 824 824 824 823 820 817 815 814 813 812 811 810 809 809 808 806 805 803 800 799 796 795 793 792 791 788 785 783 781 775 765 758 757 759 760 760 759 758
801 809 814 819 823 825 826 825 824 822 819 817 814 812 811 811 810 810 810 810 809 807 805 803 801 799 799 794 794 792 790 788 786 784 783 774 770 765 757 757 758 756 756
800 808 814 820 824 827 827 826 823 822 821 819 816 815 815 815 816 814 812 811 810 809 807 806 803 801 799 796 795 793 791 788 786 784 782 782 781 773 764 757 756 755 754
798 806 812 818 823 825 826 827 824 823 822 819 818 818 817 816 816 815 813 812 812 811 809 806 805 803 799 797 795 794 791 788 787 786 785 782 779 776 773 758 757 755 752
799 805 811 816 821 824 825 826 824 823 822 821 819 819 818 817 817 817 816 815 814 812 810 808 806 804 801 797 794 793 791 788 786 786 784 783 781 777 775 767 762 757 747
795 803 808 814 818 821 825 825 823 823 823 822 821 821 819 818 819 819 819 818 815 813 811 809 807 804 802 798 795 793 791 787 785 783 782 780 780 779 777 770 760 757 751
794 801 806 811 816 819 822 822 822 823 823 824 824 823 820 820 820 821 821 821 818 815 812 810 808 805 803 799 796 794 791 787 785 783 782 780 778 777 776 773 768 753 749
792 798 804 810 815 818 819 820 821 822 824 825 824 822 821 820 820 823 823 822 821 816 813 812 809 807 804 801 797 797 794 789 785 786 783 780 777 775 771 769 765 762 751
792 797 802 809 815 817 818 818 820 822 825 826 824 823 822 821 822 824 826 824 821 817 814 813 810 809 805 803 801 800 797 791 787 789 784 781 777 773 770 766 764 762 759
790 795 801 808 813 817 818 819 820 823 825 826 826 824 822 823 825 825 826 825 823 820 816 814 812 810 807 805 804 801 798 793 790 788 784 781 778 774 770 767 765 762 758
788 793 798 805 809 815 818 819 822 824 825 827 826 824 822 824 825 826 826 826 824 822 818 815 813 810 810 807 809 803 800 796 793 791 789 785 780 777 773 768 765 762 758
785 792 797 802 805 810 813 818 821 823 823 827 826 825 823 824 825 827 826 826 824 824 820 817 815 813 812 810 809 806 803 798 795 796 791 790 785 780 774 772 767 764 760
777 783 793 799 803 807 811 817 820 823 823 826 827 826 826 825 826 828 826 826 826 825 823 820 818 817 815 812 810 809 806 801 801 801 801 792 787 783 779 776 773 770 766
774 777 786 792 798 803 807 814 818 821 822 827 828 827 827 826 827 828 827 828 828 827 825 823 821 819 818 816 813 812 809 806 806 805 798 796 794 790 785 782 778 774 770
763 766 778 786 793 798 804 810 816 817 823 825 827 828 828 827 829 829 828 830 830 827 826 825 824 821 820 819 817 814 812 810 809 807 804 801 797 792 789 787 783 779 777
750 760 771 780 788 796 801 808 813 816 823 825 827 828 828 829 830 830 831 833 832 830 829 828 826 824 823 821 819 818 817 816 816 813 809 804 801 798 792 790 787 783 782
746 758 768 777 786 792 800 806 812 818 823 825 827 829 829 830 831 833 834 834 834 833 831 831 829 827 827 825 824 823 822 821 819 816 813 807 805 803 799 794 790 786 785
746 757 767 774 783 791 798 804 810 817 822 824 827 830 830 830 832 834 835 835 835 835 834 834 833 831 831 831 829 827 826 824 821 818 815 812 809 808 803 797 793 790 786
749 756 766 775 781 792 798 802 810 814 819 824 828 830 831 832 833 834 835 836 836 836 837 837 837 836 834 834 833 830 827 825 823 821 818 816 815 811 807 801 797 792 791
755 761 769 776 785 791 796 804 809 814 819 824 829 830 832 832 834 835 836 837 837 837 838 838 840 838 837 836 835 832 829 828 826 824 823 822 820 816 812 807 802 800 796
762 766 772 780 788 792 797 805 810 815 819 824 828 830 832 833 835 836 837 838 838 839 840 840 841 840 838 838 836 834 833 831 829 829 828 825 823 819 816 812 808 804 799
766 770 775 782 789 794 800 803 810 815 820 824 828 831 833 834 836 836 837 837 839 840 841 841 842 842 841 840 838 837 836 834 832 832 830 828 826 823 819 816 814 809 804
769 773 778 784 790 796 800 804 810 815 820 824 828 831 833 834 836 837 838 839 840 841 843 843 844 844 842 841 839 838 837 836 835 834 832 830 827 824 822 819 815 812 809
770 775 779 784 790 795 799 804 810 815 819 824 827 830 832 834 837 839 840 841 842 843 844 845 845 844 842 841 840 839 838 837 836 835 833 830 828 826 824 821 819 816 814
770 776 780 784 789 793 798 802 808 813 818 822 825 828 831 834 837 839 841 843 843 845 846 846 846 845 844 842 842 841 840 839 838 835 833 832 831 828 826 824 821 818 815
Wind_Speed
16 20 18 15 14 13 16 17 18 17 18 22 20 17 17 16 19 24 24 24 22 22 21 20 19 19 16 17 18 19 20 17 22 13 15 14 13 11 16 15 16 19 22
12 17 22 17 11 8 9 12 14 17 17 17 15 14 18 17 21 20 24 26 22 20 20 20 21 21 18 17 17 17 15 9 19 10 12 4 6 5 8 12 11 15 20
14 13 17 14 9 8 8 8 10 14 17 16 15 12 11 14 18 20 19 19 21 19 20 19 18 19 17 18 17 16 15 12 10 13 4 3 3 10 10 16 10 18 21
14 13 17 13 11 9 7 8 10 13 16 17 19 19 18 16 16 19 16 16 18 21 21 20 17 16 16 17 16 14 14 12 11 10 9 11 10 3 6 8 23 18 18
14 12 15 16 13 9 8 9 11 11 11 14 14 16 17 15 13 16 18 18 18 19 23 22 18 17 16 15 15 15 13 11 10 9 8 9 11 15 5 9 7 22 20
14 14 18 19 15 12 9 8 13 14 12 12 13 15 15 15 17 17 15 15 17 17 21 20 20 19 17 17 15 14 11 10 10 9 8 7 5 9 7 6 11 12 21
14 12 11 17 19 15 8 9 11 13 12 12 14 13 13 13 15 15 15 15 16 16 20 19 19 19 18 16 14 12 11 12 11 11 9 7 6 6 9 13 13 9 20
12 11 14 19 21 17 11 11 13 13 11 10 11 11 13 14 14 13 13 14 14 16 17 19 19 17 17 18 15 16 13 14 14 14 12 8 8 8 7 7 10 9 7
11 11 16 19 21 17 13 11 13 12 10 9 9 12 13 13 14 12 12 14 14 12 19 19 19 18 19 18 16 16 16 17 17 18 16 13 11 11 9 9 9 8 5
11 11 14 18 20 17 13 12 11 10 9 8 9 10 12 12 12 11 12 13 14 17 16 17 21 16 20 19 13 16 17 19 19 19 20 20 19 18 16 15 12 10 12
12 10 13 21 20 17 14 12 11 9 8 8 9 10 11 10 11 11 11 11 16 17 18 18 20 19 22 23 18 17 20 23 21 25 25 25 24 20 21 20 19 16 14
13 9 18 22 23 21 16 12 9 9 9 8 8 10 12 13 12 12 12 13 16 17 17 19 22 18 19 23 19 20 21 24 25 23 26 26 26 25 21 21 22 21 19
13 9 15 19 21 23 19 14 11 10 9 9 11 12 13 13 13 13 13 14 16 17 18 19 23 19 20 21 21 21 22 24 26 22 29 27 26 27 26 23 25 25 21
17 15 12 17 21 23 21 15 10 9 10 10 12 13 14 14 14 14 13 14 15 20 19 20 21 22 21 22 20 19 22 26 22 24 21 29 29 28 27 24 25 25 22
16 15 14 17 22 23 22 17 12 9 11 8 12 14 14 14 14 14 15 12 12 17 18 22 25 23 23 24 20 21 23 28 26 25 25 28 28 24 25 24 27 27 24
21 19 17 23 22 23 24 20 16 13 16 16 15 14 14 14 14 13 14 14 16 17 19 23 25 27 25 23 20 21 22 26 28 27 25 25 30 30 24 24 23 25 29
22 18 19 23 24 24 25 18 21 17 16 15 14 12 11 13 14 14 15 16 19 21 22 23 27 27 27 21 22 20 24 23 23 26 30 27 29 32 29 25 26 26 25
18 16 22 26 27 31 25 22 22 22 20 18 16 14 15 15 15 16 16 17 19 21 23 25 27 29 27 24 19 21 22 23 23 25 27 32 31 29 29 25 30 31 29
12 22 29 31 31 30 25 23 24 22 18 15 14 14 14 15 15 16 15 15 17 21 23 24 25 27 26 24 22 21 23 26 27 28 25 29 30 28 29 31 28 31 33
28 31 32 32 34 30 23 28 24 23 18 16 15 15 16 17 16 16 15 15 15 20 22 23 23 24 25 22 21 23 24 24 26 28 28 26 26 26 28 33 31 29 32
28 31 29 27 26 28 25 25 27 24 19 19 17 17 17 16 15 15 14 14 15 18 21 23 23 21 21 22 21 20 24 22 24 26 25 25 24 25 26 30 33 29 27
24 25 26 25 25 24 28 28 26 23 23 22 18 18 16 15 15 15 12 14 18 20 20 20 22 23 22 20 21 20 19 18 21 21 21 21 23 24 25 27 28 30 33
21 23 25 24 23 22 26 24 23 24 20 22 20 18 17 15 15 16 18 19 19 18 18 19 19 20 21 20 20 18 19 17 17 18 18 18 19 22 25 24 26 31 32
19 22 24 22 21 22 23 26 26 23 22 22 20 21 17 18 14 13 14 15 15 17 15 16 15 16 18 19 17 16 19 17 17 17 19 20 20 23 24 27 27 28 28
20 21 22 21 22 24 24 26 25 24 25 23 20 21 21 20 18 18 18 18 15 13 15 14 13 14 16 17 14 15 16 17 17 17 21 24 25 23 25 23 26 24 24
20 19 21 22 25 25 28 27 27 26 24 25 22 20 19 19 20 20 17 13 15 14 13 11 11 11 12 14 13 13 15 14 15 21 24 24 23 22 22 23 23 24 26
Wind_Direction
132 118 108 92 74 58 47 40 34 25 32 31 26 30 22 44 52 43 31 27 20 20 21 23 9 15 24 1 7 356 352 354 353 351 328 312 304 297 288 289 294 284 274
126 118 102 89 72 46 29 32 38 27 28 31 30 25 46 50 51 45 44 33 27 17 19 23 17 14 10 9 6 5 357 348 4 352 304 327 325 20 337 324 323 309 309
136 119 102 95 86 80 54 38 57 36 34 30 37 39 40 29 19 16 21 26 33 18 13 13 16 14 7 7 3 3 0 348 352 349 306 335 327 345 306 315 333 339 328
114 115 115 112 108 94 74 61 64 55 44 37 45 45 42 34 24 14 13 6 7 3 357 1 8 8 7 2 355 350 351 350 342 352 351 329 313 325 313 313 313 308 328
124 121 124 129 117 110 85 70 84 65 52 46 44 47 47 38 29 24 18 21 12 12 3 7 7 358 356 359 353 346 346 347 339 336 331 311 307 273 281 302 320 317 310
125 127 137 135 133 121 112 91 89 77 61 52 47 46 44 37 34 25 22 20 17 15 10 11 10 5 1 359 355 349 352 1 349 350 356 360 342 340 312 296 298 295 307
136 141 151 147 137 126 122 97 97 77 67 60 53 48 54 47 40 33 26 25 22 20 17 18 14 11 6 9 7 10 0 8 7 9 356 339 343 342 312 301 301 294 300
147 154 155 149 137 131 128 95 97 84 72 65 63 59 58 57 51 40 36 31 28 22 25 27 21 21 24 21 25 19 18 17 32 23 13 357 343 332 314 300 309 309 288
147 142 136 143 139 132 128 113 102 94 85 83 73 69 63 61 54 47 41 37 39 34 34 32 27 29 30 23 38 26 30 39 39 29 20 16 8 4 352 330 320 313 310
143 143 145 138 137 133 131 123 113 102 101 90 87 79 72 64 61 56 47 39 42 38 37 40 31 34 39 33 30 36 36 42 45 30 26 22 18 17 17 9 348 326 306
154 155 154 142 141 139 135 126 119 117 110 103 94 86 80 69 64 63 50 43 40 43 51 43 37 40 41 40 30 36 36 39 40 33 27 22 18 21 22 20 11 358 346
158 162 147 142 146 145 139 133 133 133 127 129 106 95 94 87 76 72 62 58 53 51 54 46 35 46 47 46 22 40 38 37 31 35 26 19 19 18 19 20 12 4 4
158 163 151 153 147 144 141 145 152 155 140 135 113 99 93 87 80 74 71 64 59 54 46 49 38 46 47 45 35 41 41 39 36 31 31 17 18 17 21 23 19 10 7
172 171 157 153 144 143 141 146 155 142 130 119 107 99 94 92 85 81 76 72 68 60 52 44 49 40 43 41 44 49 47 42 43 36 30 26 21 22 23 24 22 15 13
177 172 161 149 146 145 148 153 156 155 143 142 112 106 101 95 89 85 76 68 70 69 61 49 49 47 39 32 50 55 53 45 42 36 33 30 28 30 30 29 25 21 18
182 174 156 149 149 144 147 153 160 148 141 128 114 109 105 101 94 89 81 72 73 73 68 54 49 44 40 40 49 54 55 49 42 34 31 30 28 29 33 35 35 31 23
176 171 153 149 147 149 149 157 147 139 135 128 121 117 116 109 99 93 88 85 78 73 69 63 58 49 43 45 51 56 57 53 43 39 37 34 32 26 33 36 45 47 34
163 149 146 142 143 146 147 141 142 136 131 122 120 123 120 111 109 106 99 92 84 77 70 64 62 58 45 46 61 65 60 54 53 47 39 39 36 30 27 31 39 43 41
131 136 139 134 134 142 143 145 136 135 133 129 130 131 128 119 117 113 110 108 97 86 78 66 63 61 55 47 50 67 59 56 52 49 43 38 36 30 27 33 30 33 35
130 132 133 134 138 146 153 141 136 140 143 146 142 136 128 122 120 120 114 108 115 99 83 74 66 59 58 49 48 52 58 51 45 44 44 38 35 33 31 35 30 27 23
125 127 130 132 139 148 144 138 137 135 141 140 141 133 127 125 126 120 118 112 115 111 87 73 63 64 54 53 48 49 49 52 47 42 39 40 35 36 36 36 35 29 26
125 127 127 134 142 147 150 143 138 140 144 144 143 137 136 133 122 114 117 113 112 108 98 79 65 61 57 48 48 47 46 46 53 44 42 40 36 36 36 36 33 30 33
129 131 133 135 139 144 154 137 146 153 152 148 144 145 136 127 127 125 112 105 109 102 93 85 72 63 56 52 48 45 42 50 54 48 44 43 43 40 40 35 32 32 31
137 141 140 143 147 152 153 148 151 158 153 153 152 146 143 129 130 128 120 114 109 106 97 94 82 66 55 47 43 43 42 52 56 52 49 49 47 40 39 32 33 29 29
146 151 153 158 160 161 156 159 159 160 156 156 160 148 136 134 118 106 110 104 96 104 110 101 80 62 51 43 40 37 46 48 55 54 47 43 38 35 30 27 25 23 21
153 160 167 164 167 160 159 164 171 168 164 158 160 160 153 149 137 129 118 106 103 98 91 87 82 71 56 47 43 49 53 51 55 54 47 41 36 33 25 20 15 17 15